Content
SEND FEEDBACK

Daily
Averages
Monthly
Summary
United States of America

EARTH CITY, MISSOURI


Home > North America > United States > Missouri
Elevation: 476 feet     Latitude: 38 46N     Longitude: 090 30W

WEATHER
 
SELECT A DAY
Number of Records: 205,815;   Date Range: 1/1/95 - 9/29/14
 
SHARE

PRINT THIS DATA

[ ← Previous Day ]
WEATHER ALMANAC - MARCH 1, 2013
[ Next Day → ]
[ °C ]   °F
Weather ElementAverageHighLow
Temperature31.6 °F34 °F (2:51 pm)28.4 °F (11:22 pm)
Dewpoint26.1 °F28.4 °F (12:04 pm)21.2 °F (11:22 pm)
Humidity80.4 %89 % (2:51 am)72 % (10:51 pm)
Barometer30.14 in30.24 in (10:51 pm)30.07 in (3:28 am)
Wind Speed9.5 mph13.8 mph (11:51 pm)
Weather ElementAverage
Visibility4.5 mi
Wind DirectionNNW (327.7 °)

Weather ElementTotal
Precipitation0.12 in
Heating Degree Days33.8 (Base 65)
Averaged from 47 records on March 1, 2013
WEATHER CONDITIONS BREAKOUT
WIND DIRECTION BREAKOUT
WEATHER BY HOUR - MARCH 1, 2013
[ °C ]   °F
Local TimeTemperatureDewpointHumidityBarometerVisibilityWind DirectionWind SpeedGust SpeedPrecipitationEventsConditions
12:51 AM32.0 °F28.0 °F85 %30.12 in5.0 miNW (310°)10.4 mph0.00 inSnowLight Snow
1:51 AM32.0 °F27.0 °F82 %30.12 in5.0 miNW (310°)10.4 mph0.00 inSnowLight Snow
2:19 AM32.0 °F26.6 °F80 %30.08 in4.0 miWNW (300°)8.1 mph0.00 inSnowLight Snow
2:51 AM30.9 °F28.0 °F89 %30.11 in2.5 miWNW (300°)6.9 mph0.00 inSnowLight Snow
3:28 AM30.2 °F26.6 °F86 %30.07 in3.0 miWNW (300°)6.9 mph0.00 inSnowLight Snow
3:51 AM30.9 °F27.0 °F85 %30.11 in3.0 miWNW (300°)6.9 mph0.01 inSnowLight Snow
4:13 AM30.2 °F26.6 °F86 %30.08 in2.0 miNW (310°)10.4 mph0.00 inSnowLight Snow
4:51 AM30.9 °F27.0 °F85 %30.11 in2.0 miNW (310°)9.2 mph0.00 inSnowLight Snow
5:05 AM30.2 °F26.6 °F86 %30.08 in1.5 miWNW (300°)6.9 mph0.01 inSnowLight Snow
5:35 AM30.2 °F26.6 °F86 %30.09 in2.0 miWNW (300°)6.9 mph0.01 inSnowLight Snow
5:51 AM30.0 °F27.0 °F88 %30.12 in1.8 miWNW (290°)6.9 mph0.02 inSnowLight Snow
6:51 AM30.0 °F27.0 °F88 %30.13 in1.2 miWNW (300°)8.1 mph0.01 inSnowLight Snow
7:26 AM30.2 °F26.6 °F86 %30.10 in1.8 miWNW (300°)6.9 mph0.00 inSnowLight Snow
7:51 AM30.0 °F26.1 °F85 %30.14 in1.2 miWNW (300°)6.9 mph0.01 inSnowLight Snow
8:51 AM30.9 °F26.1 °F82 %30.15 in1.2 miWNW (300°)6.9 mph0.01 inSnowLight Snow
9:14 AM30.2 °F26.6 °F86 %30.12 in1.2 miNW (310°)10.4 mph0.01 inSnowLight Snow
9:32 AM30.2 °F26.6 °F86 %30.12 in2.5 miNW (310°)9.2 mph0.01 inSnowLight Snow
9:51 AM32.0 °F27.0 °F82 %30.16 in2.5 miNW (320°)10.4 mph0.01 inSnowLight Snow
10:04 AM32.0 °F26.6 °F80 %30.13 in3.0 miNW (310°)11.5 mph0.00 inSnowLight Snow
10:51 AM32.0 °F27.0 °F82 %30.16 in5.0 miNNW (330°)10.4 mph0.00 inSnowLight Snow
11:19 AM32.0 °F26.6 °F80 %30.13 in4.0 miNW (310°)9.2 mph0.00 inSnowLight Snow
11:51 AM33.1 °F27.0 °F78 %30.16 in4.0 miNW (320°)6.9 mph0.00 inSnowLight Snow
12:04 PM33.8 °F28.4 °F81 %30.13 in6.0 miNorth (350°)6.9 mph0.00 inSnowLight Snow
12:27 PM33.8 °F26.6 °F75 %30.12 in8.0 miNorth (360°)11.5 mph0.00 inSnowLight Snow
12:51 PM33.1 °F27.0 °F78 %30.15 in7.0 miNorth (350°)9.2 mph0.00 inSnowLight Snow
1:07 PM33.8 °F26.6 °F75 %30.12 in4.0 miNorth (350°)11.5 mph0.00 inSnowLight Snow
1:18 PM33.8 °F26.6 °F75 %30.12 in5.0 miNorth (360°)9.2 mph0.00 inSnowLight Snow
1:51 PM33.1 °F26.1 °F75 %30.14 in8.0 miNNW (340°)9.2 mph0.00 inSnowLight Snow
2:10 PM33.8 °F26.6 °F75 %30.11 in8.0 miNNW (340°)9.2 mph0.00 inSnowLight Snow
2:48 PM33.8 °F26.6 °F75 %30.12 in6.0 miNNW (330°)8.1 mph0.00 inSnowLight Snow
2:51 PM34.0 °F28.0 °F79 %30.15 in6.0 miNW (320°)8.1 mph0.00 inSnowLight Snow
3:44 PM33.8 °F26.6 °F75 %30.13 in4.0 miNorth (350°)11.5 mph0.00 inSnowLight Snow
3:51 PM33.1 °F26.1 °F75 %30.16 in4.0 miNorth (360°)10.4 mph0.00 inSnowLight Snow
3:53 PM33.8 °F26.6 °F75 %30.13 in5.0 miNorth (360°)12.7 mph0.00 inSnowLight Snow
4:05 PM33.8 °F26.6 °F75 %30.13 in2.5 miNNW (340°)9.2 mph0.00 inSnowLight Snow
4:44 PM32.0 °F26.6 °F80 %30.14 in3.0 miNorth (360°)11.5 mph0.00 inSnowLight Snow
4:51 PM32.0 °F25.0 °F75 %30.18 in5.0 miNorth (360°)11.5 mph0.00 inSnowLight Snow
5:51 PM30.9 °F26.1 °F82 %30.19 in4.0 miNNW (330°)9.2 mph0.00 inSnowLight Snow
5:59 PM30.2 °F26.6 °F86 %30.17 in2.5 miNNW (330°)9.2 mph0.00 inSnowLight Snow
6:51 PM30.9 °F25.0 °F79 %30.22 in3.0 miNorth (350°)9.2 mph0.01 inSnowLight Snow
7:02 PM30.2 °F24.8 °F80 %30.18 in7.0 miNorth (350°)12.7 mph0.00 inSnowLight Snow
7:51 PM30.0 °F24.1 °F79 %30.22 in7.0 miNorth (350°)12.7 mph0.00 inSnowLight Snow
8:51 PM30.0 °F24.1 °F79 %30.22 in9.0 miNNW (340°)11.5 mph0.00 inSnowLight Snow
9:51 PM30.0 °F23.0 °F75 %30.23 in9.0 miNorth (350°)11.5 mph0.00 inSnowLight Snow
10:51 PM30.0 °F21.9 °F72 %30.24 in10.0 miNorth (350°)11.5 mph0.00 inMostly Cloudy
11:22 PM28.4 °F21.2 °F74 %30.20 in9.0 miNNW (340°)10.4 mphSnowLight Snow
11:51 PM28.9 °F21.9 °F75 %30.23 in9.0 miNNW (340°)13.8 mph0.00 inSnowLight Snow
Hourly data recorded from KSTL, located miles away from Earth City, Missouri







STORIES FROM OUR PARTNERS